Flag for Greece Weather past 2 weeks in Santorini, Greece

Now
84 °F

Sunny.


Feels Like: 87 °F
Forecast: 77 / 80 °F
Wind: 6 mph from Northwest

Location: Santorini Island

Current Time: Jul 31, 2014 at 8:47:12 AM

Latest Report: Jul 31, 2014 at 7:50 AM


Visibility: 10 mi

Pressure: 29.74 "Hg

Humidity: 55%

Dew point: 66 °F

Location of SantoriniLocation

Historic Weather in Santorini — Graph

°F

Santorini temperature yesterday

Maximum temperature yesterday: 91 °F (at 3:50 PM)
Minimum temperature yesterday: 77 °F (at 12:20 AM)
Average temperature yesterday: 83 °F

Past Weeks' High & Low Weather Summary

 TemperatureHumidityPressure
High91 °F (Jul 22, 2:20 PM)94% (Jul 19, 8:20 AM)29.89 "Hg (Jul 19, 8:20 AM)
Low73 °F (Jul 16, 7:20 AM)28% (Jul 22, 2:20 PM)29.68 "Hg (Jul 23, 4:50 AM)
Average81 °F62%29.80 "Hg
* Reported Jul 16 7:20 AM — Jul 31 7:50 AM, Santorini, Weather by CustomWeather, © 2014

Note: Actual official high and low records may vary slightly from our data, if they occured in-between our weather recording intervals... More about our weather records

Advertising

Santorini weather history for previous 24 hours

 ConditionsComfort  
Time TempWeatherWind HumidityBarometerVisibility
7:50 AM
Jul 31
84 °FSunny.6 mph55%29.74 "Hg10 mi
7:20 AM77 °FClear.6 mph79%29.74 "Hg10 mi
6:50 AM77 °FClear.6 mph79%29.74 "Hg10 mi
6:20 AM79 °FClear.6 mph74%29.74 "Hg10 mi
5:50 AM79 °FClear.6 mph74%29.74 "Hg10 mi
5:20 AM79 °FClear.6 mph58%29.74 "Hg10 mi
4:50 AM79 °FClear.6 mph58%29.74 "Hg10 mi
3:20 AM81 °FPassing clouds.9 mph58%29.74 "HgN/A
2:20 AM81 °FClear.9 mph54%29.77 "Hg10 mi
1:50 AM81 °FClear.12 mph58%29.77 "Hg10 mi
1:20 AM81 °FClear.9 mph66%29.77 "Hg10 mi
12:50 AM81 °FClear.9 mph66%29.77 "Hg10 mi
12:20 AM81 °FClear.12 mph66%29.80 "Hg10 mi
11:50 PM
Jul 30
81 °FClear.12 mph66%29.80 "Hg10 mi
11:20 PM81 °FClear.14 mph70%29.80 "Hg10 mi
10:50 PM81 °FClear.14 mph70%29.80 "Hg10 mi
10:20 PM82 °FClear.12 mph58%29.80 "Hg10 mi
9:50 PM82 °FClear.12 mph58%29.80 "Hg10 mi
9:20 PM82 °FSunny.12 mph58%29.80 "Hg10 mi
8:50 PM82 °FSunny.12 mph58%29.80 "Hg10 mi
8:20 PM84 °FSunny.14 mph58%29.80 "Hg10 mi
7:50 PM84 °FSunny.14 mph58%29.80 "Hg10 mi
7:20 PM88 °FSunny.15 mph49%29.77 "Hg10 mi
6:50 PM88 °FSunny.15 mph49%29.77 "Hg10 mi
6:20 PM88 °FSunny.16 mph55%29.80 "Hg10 mi
5:50 PM88 °FSunny.16 mph55%29.80 "Hg10 mi
5:20 PM91 °FSunny.16 mph44%29.80 "Hg10 mi
4:50 PM91 °FSunny.16 mph44%29.80 "Hg10 mi
4:20 PM91 °FSunny.14 mph38%29.80 "Hg10 mi
3:50 PM91 °FSunny.14 mph38%29.80 "Hg10 mi
3:20 PM90 °FSunny.16 mph43%29.80 "Hg10 mi
2:50 PM90 °FSunny.16 mph43%29.80 "Hg10 mi
2:20 PM90 °FSunny.17 mph43%29.80 "Hg10 mi
1:50 PM90 °FSunny.17 mph43%29.80 "Hg10 mi
1:20 PM90 °FSunny.14 mph43%29.80 "Hg10 mi
12:50 PM90 °FSunny.14 mph43%29.80 "Hg10 mi
12:20 PM90 °FSunny.17 mph38%29.80 "Hg10 mi
11:50 AM90 °FSunny.17 mph38%29.80 "Hg10 mi
11:20 AM86 °FSunny.15 mph52%29.80 "Hg10 mi
10:50 AM86 °FSunny.15 mph52%29.80 "Hg10 mi
10:20 AM84 °FSunny.16 mph55%29.80 "Hg10 mi
9:50 AM84 °FSunny.16 mph55%29.80 "Hg10 mi
9:20 AM84 °FSunny.12 mph55%29.77 "Hg10 mi
8:50 AM84 °FSunny.12 mph55%29.77 "Hg10 mi
8:20 AM84 °FSunny.9 mph48%29.77 "Hg10 mi
Weather by CustomWeather, © 2014

See weather overviewHow to use our weather pages